Terug naar catalogus

SLIPPERS2SAT

ActiefWetenschapSSO
NORAD 67001·PAYLOAD·🇨🇳 China
Deze satellietnaam is nog niet bevestigd door officiële bronnen.

Gelanceerd Dec 10, 2025 vanaf Jiuquan Satellite Launch Center

Loading…

Volgende Passages (komende 24 uur)

TLE

VersSource: Space-Track

Epoch: Sep 14, 2026, 03:37 UTC

1 67001U 25292J   26257.15071279  .00004122  00000-0  27705-3 0  9991
2 67001  97.6280 332.1838 0016072  55.9357 304.3394 15.07223720 41848

Volg SLIPPERS2SAT in realtime met AllMySat

Download on the App Store